Hourly Weather Roundup
Issued by NWS Central Illinois

Home | Current Version | Previous Version | Text Only | Print | Product List | Glossary On
Versions: 1 2 3 4 5 6 7 8 9 10 11 12 13 14 15 16 17 18 19 20 21 22 23 24 25 26 27 28 29 30 31 32 33 34 35 36 37 38 39 40 41 42 43 44 45 46 47 48 49 50
000
NZUS43 KILX 261910
HWRILX

AREA WEATHER ROUNDUP
NATIONAL WEATHER SERVICE, LINCOLN IL
100 PM CST FRI DEC 26 2014


CITY           SKY/WX    TMP DP  RH WIND       PRES   REMARKS
BLOOMINGTON    FAIR      52  43  71 SW16      30.02F
CHAMPAIGN      FAIR      51  43  74 S16       30.04F
DECATUR        FAIR      52  43  71 SW18      30.04F
FLORA          FAIR      52  43  70 S14G20    30.11F
GALESBURG      FAIR      52  40  63 SW13      29.97F
JACKSONVILLE   FAIR      57  43  60 SW13      30.00F
LACON          FAIR      49  37  65 SW13      30.00S
LAWRENCEVILLE  FAIR      53  42  66 S17       30.14F
LITCHFIELD     FAIR      50  42  73 S15       30.04F
$$


CITY           SKY/WX    TMP DP  RH WIND       PRES   REMARKS
LINCOLN        FAIR      55  43  64 SW8       30.02F
MACOMB         FAIR      53  43  69 SW12      30.00F
MATTOON        FAIR      50  41  71 S9G18     30.06F
MT CARMEL AP   FAIR      55  41  58 S14       30.13F
OLNEY-NOBLE AP FAIR      52  43  71 S8G16     30.12F
PARIS          FAIR      49  44  81 S13       30.08F
PEORIA         FAIR      53  39  59 SW13      30.00F
PONTIAC        FAIR      54  43  68 SW16      30.01F
RANTOUL        FAIR      53  44  71 SW16      30.04F
ROBINSON       FAIR      52  42  68 S13       30.13F
SPRINGFIELD    FAIR      55  43  63 S14       30.02F
TAYLORVILLE    FAIR      52  43  71 S15G22    30.04S
$$

...REGIONAL REPORTS...


CITY           SKY/WX    TMP DP  RH WIND       PRES   REMARKS
CHICAGO O`HARE PTSUNNY   48  37  65 SW14      29.98F
KANKAKEE       FAIR      51  42  71 SW20      30.03F
MOLINE         FAIR      50  37  61 SW10      29.95F
MOUNT VERNON   FAIR      54  43  66 S16       30.12F
PITTSFIELD     FAIR      57  44  61 SW12      30.00S
QUINCY         FAIR      53  41  63 SW15G22   29.97F
ROCKFORD       CLOUDY    49  35  58 SW9       29.98F
$$


CITY           SKY/WX    TMP DP  RH WIND       PRES   REMARKS
BURLINGTON     FAIR      53  40  61 SW14      29.95F
CEDAR RAPIDS   FAIR      44  35  70 SW8       29.92F
DES MOINES     CLOUDY    34  31  88 N7        29.95F FOG     WCI  28
KIRKSVILLE     FAIR      53  42  66 SW12G20   29.93F
OTTUMWA        CLOUDY    48  36  63 SW9       29.92F
ST LOUIS       NOT AVBL
$$


CITY           SKY/WX    TMP DP  RH WIND       PRES   REMARKS
TERRE HAUTE    FAIR      51  40  65 S13       30.10F
EVANSVILLE     PTSUNNY   55  42  61 SW14      30.17F
INDIANAPOLIS   PTSUNNY   51  39  63 S13       30.10F
LAFAYETTE      FAIR      50  40  68 SW10G18   30.07F
MADISON        PTSUNNY   45  34  65 VRB5      29.94S
MILWAUKEE      PTSUNNY   48  34  58 SW13      29.95F
$$




USA.gov is the U.S. government's official web portal to all federal, state and local government web resources and services.